Погода в Покровском

Россия / Ярославская область     57°39′35″N   38°33′34″E
темп.,
°C
ветер,
м/с
пор.,
м/с
влажн.,
%
обл.,
%
осадки,
мм/ч
давл.,
гПа
погр.,
м
8 мая, сб
сб800:00+5ю3882100 0.0 1012139
03:00+5ююв397991 0.0 1011174
06:00+7ююв41371100 0.0 1010438
09:00+10ююв61265100 0.0 10101312
12:00+8ююв51389100 1.3 10091379
15:00+8юв41293100 4.9 10071419
18:00+8юв41197100 8.1 10051208
21:00+8юв41196100 15.8 1003924
9 мая, вс
вс900:00+8вюв3698100 3.4 1001270
03:00+7зсз3598100 3.6 1001289
06:00+4сз61295100 0.6 1003702
09:00+2сз61497100 3.3 1006716
12:00+3сз61398100 4.9 1010861
15:00+8ссз61274100 6.0 10131458
18:00+9ссз496629 0.0 1015908
21:00+5сз311795 0.1 1018243
10 мая, пн
пн1000:00+2сз310864 0.0 1022202
03:00+1сз36800 0.0 102598
06:00+3зсз23725 0.0 102791
09:00+9зюз23545 0.0 1028492
12:00+12юз334540 0.0 10281231
15:00+14юз454355 0.0 10281658
18:00+11ююз2263100 0.0 102832
21:00+9ю2466100 0.0 103067
11 мая, вт
вт1100:00+9ююз256839 0.0 1030102
03:00+6ююз227824 0.0 103124
06:00+7ю247720 0.0 1032110
09:00+13ю34569 0.0 1032490
12:00+17ю33477 0.0 10311040
15:00+19юв224629 0.0 10301256
18:00+17юв346098 0.0 1030390
21:00+11юв348295 0.0 103062
12 мая, ср
ср1200:00+9юв238329 0.0 103059
03:00+7вюв228238 0.0 103030
06:00+9вюв257717 0.0 1030125
09:00+15вюв35545 0.0 1029543
12:00+19вюв45443 0.0 1028893
15:00+21вюв45480 0.0 10271159
18:00+20вюв36625 0.0 1026717
21:00+14в378846 0.0 1026116